Home > Time Zones > World Clock > Weather > Japan > Kobe > Past weeks

Flag for Japan Weather past 2 weeks in Kobe, Japan

Now
46 °F

Light rain. Passing clouds.


Feels Like: 40 °F
Forecast: 38 / 51 °F
Wind: 14 mph from East

Location: Osaka International Airport

Current Time: Mar 3, 2015 at 9:08:05 PM

Latest Report: Mar 3, 2015 at 8:00 PM


Visibility: 5 mi

Pressure: 29.80 "Hg

Humidity: 87%

Dew point: 43 °F

Location of KobeLocation

Historic Weather in Kobe — Graph

°F

Kobe temperature yesterday

Maximum temperature yesterday: 50 °F (at 1:00 PM)
Minimum temperature yesterday: 37 °F (at 5:00 AM)
Average temperature yesterday: 45 °F

Past Weeks' High & Low Weather Summary

 TemperatureHumidityPressure
High59 °F (Feb 22, 2:00 PM)100% (Feb 23, 5:00 AM)30.36 "Hg (Feb 23, 5:00 AM)
Low28 °F (Feb 21, 7:00 AM)35% (Feb 28, 3:00 PM)29.68 "Hg (Mar 1, 2:00 PM)
Average47 °F66%30.04 "Hg
* Reported Feb 16 8:00 PM — Mar 3 8:00 PM, Kobe, Weather by CustomWeather, © 2015

Note: Actual official high and low records may vary slightly from our data, if they occured in-between our weather recording intervals... More about our weather records

Advertising

Kobe weather history for previous 24 hours

 ConditionsComfort  
Time TempWeatherWind HumidityBarometerVisibility
8:00 PM
Tue, Mar 3
46 °FLight rain. Passing clouds.14 mph87%29.80 "Hg5 mi
7:00 PM46 °FLight rain. Passing clouds.10 mph82%29.83 "Hg6 mi
6:00 PM48 °FLight rain. Passing clouds.14 mph71%29.80 "HgN/A
5:00 PM50 °FBroken clouds.13 mph58%29.83 "HgN/A
4:00 PM50 °FLight rain. Broken clouds.14 mph58%29.86 "HgN/A
3:00 PM50 °FBroken clouds.13 mph58%29.89 "HgN/A
2:00 PM50 °FLight rain. Broken clouds.12 mph58%29.95 "HgN/A
1:00 PM50 °FBroken clouds.9 mph54%29.98 "HgN/A
12:00 PM48 °FMore clouds than sun.10 mph58%30.01 "HgN/A
11:00 AM46 °FBroken clouds.9 mph57%30.09 "HgN/A
10:00 AM45 °FBroken clouds.8 mph57%30.12 "HgN/A
9:00 AM41 °FBroken clouds.3 mph70%30.12 "HgN/A
8:00 AM39 °FPartly sunny.3 mph75%30.09 "HgN/A
7:00 AM36 °FPartly sunny.3 mph81%30.09 "HgN/A
6:00 AM36 °FPassing clouds.7 mph81%30.09 "HgN/A
5:00 AM34 °FClear.2 mph87%30.07 "Hg10 mi
Weather by CustomWeather, © 2015

See weather overviewHow to use our weather pages